Manhattan, KS

1:25 PM CDT on March 24, 2017 (GMT -0500)
Manhattan Regional

Weather History for KMHK - August, 2014

Change the Weather History Date:

Saturday, August 9, 2014

  Actual Average Record
Temperature  
Mean Temperature 81 °F 78 °F  
Max Temperature 95 °F 91 °F 109 °F (2006)
Min Temperature 67 °F 66 °F 54 °F (1997)
Degree Days  
Heating Degree Days 0 0  
Month to date heating degree days 0 0  
Since 1 June heating degree days 1 12  
Since 1 July heating degree days 1 1  
Cooling Degree Days 16 13  
Month to date cooling degree days 142 125  
Year to date cooling degree days 1038 931  
Since 1 June cooling degree days 835 831  
Growing Degree Days 31 (Base 50)    
Moisture  
Dew Point 69 °F    
Average Humidity 66    
Maximum Humidity 90    
Minimum Humidity 41    
Precipitation  
Precipitation 0.13 in 0.14 in 3.60 in (2008)
Month to date precipitation 0.20 0.87  
Year to date precipitation 13.72 21.13  
Sea Level Pressure  
Sea Level Pressure 29.95 in    
Wind  
Wind Speed 8 mph (ESE)    
Max Wind Speed 17 mph    
Max Gust Speed 26 mph    
Visibility 10 miles    
Events Rain    
T = Trace of Precipitation, MM = Missing Value Source: NWS Daily Summary

Daily Weather History Graph

Daily Weather History Graph

Search for Another Location

Airport or City:

Trip Planner

Search our weather history database for the weather conditions in past years. The results will help you decide how hot, cold, wet, or windy it might be!

Date:

Astronomy

Aug. 09, 2014 Rise Set
Actual Time 6:34 AM CDT 8:29 PM CDT
Civil Twilight 6:05 AM CDT 8:58 PM CDT
Nautical Twilight 5:29 AM CDT 9:33 PM CDT
Astronomical Twilight 4:51 AM CDT 10:11 PM CDT
Moon 7:31 PM CDT (8/9) 5:16 AM CDT (8/9)
Length of Visible Light 14h 53m
Length of Day
13h 54m
Waxing Gibbous, 98% of the Moon is Illuminated
Aug 9
Waxing Gibbous
Aug 10
Full
Aug 17
Last Quarter
Aug 25
New
Sep 2
First Quarter

Hourly Weather History & Observations

Time (CDT) Temp. Heat Index Dew Point Humidity Pressure Visibility Wind Dir Wind Speed Gust Speed Precip Events Conditions
12:52 AM 73.9 °F - 68.0 °F 82% 29.96 in 10.0 mi East 5.8 mph - N/A   Mostly Cloudy
1:52 AM 72.0 °F - 66.9 °F 84% 29.94 in 10.0 mi East 3.5 mph - N/A   Clear
2:52 AM 69.1 °F - 66.0 °F 90% 29.94 in 9.0 mi Calm Calm - N/A   Clear
3:52 AM 69.1 °F - 66.9 °F 93% 29.96 in 8.0 mi Calm Calm - N/A   Clear
4:21 AM 70.0 °F - 66.9 °F 90% 30.00 in 8.0 mi NNE 5.8 mph - N/A   Mostly Cloudy
4:52 AM 71.1 °F - 66.9 °F 87% 30.00 in 10.0 mi Variable 6.9 mph 16.1 mph N/A   Overcast
5:05 AM 72.0 °F - 66.9 °F 84% 30.02 in 9.0 mi NNW 6.9 mph - 0.00 in Rain Light Rain
5:26 AM 69.8 °F - 66.2 °F 88% 30.01 in 10.0 mi ENE 8.1 mph - N/A Rain Light Rain
5:52 AM 70.0 °F - 66.9 °F 90% 29.96 in 10.0 mi East 5.8 mph - 0.00 in   Mostly Cloudy
6:52 AM 69.1 °F - 66.9 °F 93% 29.98 in 10.0 mi SSE 4.6 mph - N/A   Clear
7:52 AM 72.0 °F - 68.0 °F 87% 29.96 in 7.0 mi SE 5.8 mph - N/A   Clear
8:52 AM 75.9 °F - 69.1 °F 79% 29.96 in 8.0 mi SSE 5.8 mph - N/A   Clear
9:52 AM 80.1 °F 82.9 °F 69.1 °F 69% 29.98 in 9.0 mi SSW 12.7 mph - N/A   Clear
10:52 AM 82.9 °F 85.8 °F 68.0 °F 60% 29.98 in 10.0 mi SSW 8.1 mph - N/A   Clear
11:52 AM 88.0 °F 92.1 °F 69.1 °F 53% 29.98 in 10.0 mi SSW 4.6 mph - N/A   Scattered Clouds
12:52 PM 88.0 °F 92.1 °F 69.1 °F 53% 29.96 in 10.0 mi SSW 6.9 mph - N/A   Mostly Cloudy
1:52 PM 91.0 °F 94.3 °F 66.9 °F 45% 29.95 in 10.0 mi NE 5.8 mph - N/A   Clear
2:52 PM 93.0 °F 96.4 °F 66.9 °F 42% 29.92 in 10.0 mi North - - N/A   Clear
3:52 PM 91.0 °F 95.6 °F 69.1 °F 48% 29.92 in 10.0 mi ENE 11.5 mph 20.7 mph N/A   Scattered Clouds
4:52 PM 91.9 °F 98.4 °F 71.1 °F 50% 29.91 in 10.0 mi ENE 13.8 mph - N/A   Clear
5:52 PM 91.0 °F 97.6 °F 71.1 °F 52% 29.90 in 10.0 mi East 13.8 mph - N/A   Clear
6:52 PM 89.1 °F 95.0 °F 71.1 °F 55% 29.90 in 10.0 mi East 13.8 mph - N/A   Clear
7:52 PM 87.1 °F 92.0 °F 70.0 °F 57% 29.90 in 10.0 mi East 12.7 mph - N/A   Clear
8:52 PM 82.0 °F 85.9 °F 70.0 °F 67% 29.91 in 10.0 mi East 9.2 mph - N/A   Clear
9:52 PM 80.6 °F 84.6 °F 71.6 °F 74% 29.95 in 10.0 mi ESE 8.1 mph - N/A   Clear
10:52 PM 78.8 °F - 71.6 °F 78% 29.93 in 10.0 mi ESE 8.1 mph - N/A   Clear
11:52 PM 78.1 °F - 71.1 °F 79% 29.94 in 10.0 mi ESE 6.9 mph - N/A   Overcast